TimeMST,TemperatureF,Dew PointF,Humidity,Sea Level PressureIn,VisibilityMPH,Wind Direction,Wind SpeedMPH,Gust SpeedMPH,PrecipitationIn,Events,Conditions,WindDirDegrees,DateUTC
12:53 AM,30.0,17.1,59,29.87,10.0,ESE,5.8,-,N/A,,Clear,110,2013-02-06 07:53:00
1:53 AM,25.0,14.0,63,29.86,10.0,Calm,Calm,-,N/A,,Clear,0,2013-02-06 08:53:00
2:53 AM,19.9,12.0,71,29.84,10.0,Calm,Calm,-,N/A,,Clear,0,2013-02-06 09:53:00
3:53 AM,23.0,14.0,68,29.81,10.0,Calm,Calm,-,N/A,,Clear,0,2013-02-06 10:53:00
4:53 AM,21.0,12.9,71,29.82,10.0,Calm,Calm,-,N/A,,Clear,0,2013-02-06 11:53:00
5:53 AM,17.1,12.0,81,29.84,10.0,WSW,3.5,-,N/A,,Clear,250,2013-02-06 12:53:00
6:53 AM,15.1,10.0,80,29.85,10.0,SW,6.9,-,N/A,,Clear,220,2013-02-06 13:53:00
7:53 AM,25.0,14.0,63,29.83,10.0,West,3.5,-,N/A,,Clear,270,2013-02-06 14:53:00
8:53 AM,36.0,17.1,46,29.83,10.0,WNW,3.5,-,N/A,,Clear,290,2013-02-06 15:53:00
9:53 AM,42.1,17.1,37,29.82,10.0,WNW,5.8,-,N/A,,Clear,300,2013-02-06 16:53:00
10:53 AM,48.9,17.1,28,29.78,10.0,West,8.1,-,N/A,,Clear,270,2013-02-06 17:53:00
11:53 AM,53.1,16.0,23,29.75,10.0,West,6.9,-,N/A,,Clear,270,2013-02-06 18:53:00
12:53 PM,57.9,16.0,19,29.70,10.0,Variable,3.5,-,N/A,,Clear,0,2013-02-06 19:53:00
1:53 PM,61.0,16.0,17,29.69,10.0,Calm,Calm,-,N/A,,Clear,0,2013-02-06 20:53:00
2:53 PM,63.0,17.1,17,29.69,10.0,NE,4.6,-,N/A,,Clear,50,2013-02-06 21:53:00
3:53 PM,64.0,17.1,16,29.68,10.0,NE,6.9,-,N/A,,Clear,50,2013-02-06 22:53:00
4:53 PM,61.0,18.0,19,29.72,10.0,NE,16.1,25.3,N/A,,Clear,40,2013-02-06 23:53:00
5:53 PM,55.0,16.0,22,29.78,10.0,NNE,15.0,-,N/A,,Clear,30,2013-02-07 00:53:00
6:53 PM,51.1,16.0,25,29.82,10.0,NE,9.2,-,N/A,,Clear,40,2013-02-07 01:53:00
7:53 PM,50.0,18.0,28,29.83,10.0,NNE,11.5,-,N/A,,Clear,20,2013-02-07 02:53:00
8:53 PM,48.0,18.0,30,29.86,10.0,North,10.4,-,N/A,,Clear,350,2013-02-07 03:53:00
9:53 PM,45.0,18.0,34,29.87,10.0,North,10.4,-,N/A,,Clear,360,2013-02-07 04:53:00
10:53 PM,46.9,18.0,32,29.88,10.0,North,15.0,-,N/A,,Partly Cloudy,350,2013-02-07 05:53:00
11:53 PM,46.0,19.9,35,29.90,10.0,North,9.2,-,N/A,,Scattered Clouds,350,2013-02-07 06:53:00